Weather Roundup
Issued by NWS Chicago, IL

Home | Current Version | Previous Version | Graphics & Text | Print | Product List | Glossary On
Versions: 1 2 3 4 5 6 7 8 9 10 11 12 13 14 15 16 17 18 19 20 21 22 23 24 25 26 27 28 29 30 31 32 33 34 35 36 37 38 39 40 41 42 43 44 45 46 47 48 49 50
000
NZUS59 KLOT 270224
HRRLOT

CHICAGO AREA WEATHER ROUNDUP
NATIONAL WEATHER SERVICE CHICAGO/ROMEOVILLE IL
900 PM CDT THU MAR 26 2015

NOTE: "FAIR" INDICATES FEW OR NO CLOUDS BELOW 12,000 FEET WITH NO
SIGNIFICANT WEATHER AND/OR OBSTRUCTIONS TO VISIBILITY.

* THESE STATIONS ARE NOT UNDER NWS QUALITY CONTROL. THEY ALSO MAY NOT
  REPORT WEATHER SUCH AS PRECIPITATION OR FOG.

ILZ005-006-012>014-019>023-270300-
NORTHEAST ILLINOIS

CITY           SKY/WX    TMP DP  RH WIND       PRES   REMARKS
OHARE          CLOUDY    35  21  56 NW9       30.03R WCI  28
MIDWAY         MOCLDY    38  19  46 NW12      30.04R
AURORA         CLOUDY    34  21  59 N10       30.05R WCI  26
LANSING*       LGT RAIN  35  25  65 NE5       30.04R WCI  31
JOLIET*        CLOUDY    38  25  59 N8        30.06R
WAUKEGAN       CLOUDY    32  19  58 N9        30.03R WCI  24
DUPAGE AIRPORT CLOUDY    35  21  56 NW8       30.04R WCI  29
WHEELING       CLOUDY    35  21  56 N13G21    30.05R WCI  26
KANKAKEE*      MOCLDY    36  25  65 CALM      30.05R
MORRIS*        CLOUDY    33  26  76 N5        30.05R WCI  29
LEWIS AIRPORT* CLOUDY    36  22  58 N12       30.05R
NORTHERLY IS     N/A     36  25  65 MISG        N/A
$$

WIZ051-052-058>065-066-070>072-270300-
SOUTHEAST WISCONSIN

CITY           SKY/WX    TMP DP  RH WIND       PRES   REMARKS
MILWAUKEE      MOCLDY    31  15  52 N15       30.05R WCI  20
KENOSHA*       CLOUDY    32  20  61 N10       30.05R WCI  24
RACINE*        CLOUDY    32  16  51 N12       30.06R WCI  23
BURLINGTON     CLOUDY    30  16  57 N12       30.05R WCI  20
WAUKESHA       CLOUDY    28  18  64 N9        30.06R WCI  20
WEST BEND      CLOUDY    30  18  59 N10G16    30.05R WCI  21
$$

INZ001>003-010>013-019-020-270300-
NORTHWEST INDIANA

CITY           SKY/WX    TMP DP  RH WIND       PRES   REMARKS
GARY*          MOCLDY    37  23  56 NE7       30.05R
MICHIGAN CITY* NOT AVBL
RENSSELAER*    NOT AVBL
VALPARAISO     CLOUDY    34  25  69 N6        30.04R WCI  29
$$

LMZ740>746-270300-
SOUTHERN LAKE MICHIGAN

STATION/POSITION TIME  SKY/WX   TEMP WIND        PRES    VSBY
                                AIR  DIR/SP/G
                 (UTC)          (F)  (DEG/KT/KT) (MB)    (MI)
HARRISON CRIB    0200            35   10/ 15/ 17   N/A
BURNHAM HARBOR   0200            36  340/  9/ 13   N/A
CALUMET HARBOR   0100            36  340/ 13/ 16 1015.2R
BURNS HARBOR     0100            35   30/ 10/ 13 1016.9R
MICHIGAN CITY    0200            33  350/ 12/ 12   N/A
$$

ABBREVIATIONS USED IN REMARKS
   TC - TEMPERATURE IN CELSIUS
  WCI - WIND CHILL INDEX
   HX - HEAT INDEX
  VSB - VISIBILITY
$$



USA.gov is the U.S. government's official web portal to all federal, state and local government web resources and services.